Location: Heidgraben
(53.7081°N, 9.6576°E)
Time: 10:59:47
(UTC+00:00)

Cosmos 1844 Rocket - Pass Details

Date: 05 July 2020
Orbit: 826 x 843 km, 71.0° (Epoch: 05 August)

Event Time Altitude Azimuth Distance (km) Brightness Sun altitude
Rises 21:04:23 0° 323° (NW) 3,379 8.4 -7.7°
Reaches altitude 10° 21:07:04 10° 313° (NW) 2,440 6.6 -7.9°
Maximum altitude 21:11:53 30° 254° (WSW) 1,433 4.1 -8.3°
Drops below altitude 10° 21:16:39 10° 194° (SSW) 2,425 4.7 -8.7°
Enters shadow 21:18:14 - 188° (S) 2,962 5.1 -8.8°
